Theta_e
351 351 352 352 352 352 353 354 352 352 353 352 351 350 351 352 351 352 353 353 353 353 353 352 352 351 351 351 351 351 351 351 351 351 352 352 352 353 353 353 353 353 353 353 353 352 352 352 351 350 350 351 351 351 352 354 355 354 354 356 356 355 355
352 351 351 351 351 351 353 352 351 352 352 351 351 350 351 351 351 351 351 350 351 351 351 352 351 351 350 350 349 350 350 349 350 350 350 351 351 352 352 352 353 353 353 353 352 352 351 351 351 350 350 351 351 352 352 353 354 354 353 355 356 356 355
352 351 351 350 350 351 351 350 348 347 348 349 349 348 349 349 348 348 346 345 346 347 348 349 349 349 349 349 349 349 348 348 347 347 347 348 349 350 350 350 351 351 351 352 351 351 351 351 350 350 350 350 351 352 352 353 354 354 354 354 354 355 355
353 352 350 349 349 349 349 347 343 341 342 344 345 344 345 345 343 342 341 341 341 343 345 346 347 347 348 348 348 347 347 346 345 345 345 346 347 347 348 348 349 349 350 350 350 351 351 351 351 350 350 351 351 351 351 352 353 353 353 353 353 353 353
353 351 350 349 347 346 345 342 340 339 339 340 341 340 341 341 340 338 338 339 340 341 341 342 344 345 345 346 347 347 348 347 346 346 345 346 345 345 346 345 346 347 348 349 348 349 349 350 350 350 351 351 351 352 352 352 352 352 352 352 352 352 352
352 352 351 348 343 341 341 340 339 339 338 339 339 339 339 339 340 340 339 339 340 340 339 340 340 340 341 343 343 343 345 346 347 346 346 345 343 342 342 343 344 345 346 347 348 348 348 348 349 350 351 351 351 351 352 352 353 353 353 352 352 352 352
353 352 350 345 339 338 340 340 340 340 339 340 340 340 340 340 340 341 340 339 339 339 339 338 337 338 339 340 340 340 341 343 345 345 345 345 343 342 341 341 342 343 344 346 347 347 347 347 348 348 349 350 351 352 352 353 353 353 353 353 352 353 352
353 351 347 342 337 337 340 341 341 342 342 342 341 341 342 342 341 341 340 339 338 338 338 336 336 337 338 339 339 339 340 341 342 342 343 344 344 344 342 341 342 342 343 344 345 346 347 347 347 347 348 349 350 352 352 352 353 353 353 353 352 353 353
352 350 346 341 338 339 341 340 341 343 342 342 343 343 342 343 342 341 340 339 338 339 338 336 337 338 338 339 338 337 338 339 340 341 341 342 343 343 342 342 342 342 343 343 343 344 345 345 346 346 347 348 348 350 351 351 351 352 352 353 353 353 353
352 350 348 344 341 342 341 341 342 342 342 342 342 342 342 342 342 341 341 340 338 338 336 336 337 337 337 338 338 337 338 338 339 341 342 342 341 342 342 342 342 342 342 343 342 342 343 344 345 346 346 346 346 347 349 350 351 351 351 352 352 352 352
350 349 349 346 343 343 343 343 344 343 343 343 342 341 341 341 341 341 341 341 338 336 335 334 335 336 336 336 336 337 338 339 339 340 341 341 341 341 341 341 341 341 341 341 342 342 343 343 343 344 345 345 345 345 346 347 349 350 350 350 351 351 351
348 348 348 346 344 344 345 345 343 343 343 343 343 342 341 340 340 341 341 340 337 336 336 335 335 336 336 336 336 337 338 339 339 339 340 340 340 340 340 340 340 341 340 340 341 342 341 342 342 342 342 343 343 343 343 344 346 349 350 350 350 351 351
347 347 347 347 344 344 345 344 343 342 342 343 343 342 341 340 340 339 339 337 336 336 336 336 336 337 337 336 336 337 337 338 338 338 339 339 339 339 339 339 339 340 339 339 340 341 340 340 341 341 341 342 342 342 343 343 344 346 348 349 349 350 350
344 345 346 345 344 343 343 343 343 342 342 343 344 342 340 339 338 337 336 335 335 335 335 336 336 336 336 336 337 336 337 337 338 338 338 338 339 338 338 338 338 338 338 338 338 339 339 340 340 339 340 341 342 342 343 342 342 344 346 348 348 348 349
340 342 343 343 342 342 342 342 343 344 343 343 342 340 339 337 337 336 335 335 335 335 335 336 336 336 336 336 336 336 336 337 337 337 337 337 337 337 337 337 337 337 337 337 337 337 338 340 339 339 339 340 341 341 342 341 341 342 345 345 344 346 347
339 339 341 342 342 342 342 343 344 344 342 341 338 338 337 336 335 334 334 334 335 335 335 335 335 335 335 335 336 335 336 336 337 337 337 336 336 336 336 336 336 337 337 337 337 337 338 339 339 339 339 339 340 340 340 340 340 342 342 339 338 342 345
338 338 339 341 341 340 339 341 342 340 339 337 335 335 335 335 335 334 334 334 334 335 335 335 335 335 335 335 335 335 335 335 335 336 335 336 335 335 335 335 335 336 337 337 337 337 338 339 339 339 338 339 339 339 339 339 339 340 339 336 335 337 342
335 335 336 336 337 337 337 338 338 337 336 335 334 335 335 336 336 335 335 335 335 335 335 335 335 335 335 335 334 334 335 334 335 335 334 334 334 334 334 334 335 336 336 336 336 337 338 338 338 338 338 338 338 339 339 339 339 340 338 335 333 334 338
334 334 335 334 334 335 336 336 336 335 335 335 335 336 336 337 337 336 336 336 335 335 335 335 335 335 335 334 334 334 334 334 334 334 333 333 333 333 333 334 334 335 335 335 335 336 337 337 337 336 337 337 338 338 338 338 338 339 337 333 331 332 335
334 335 335 334 334 334 335 335 335 335 336 336 336 336 337 337 337 336 336 335 335 335 335 335 334 334 334 334 334 334 333 333 333 333 333 333 333 333 333 333 333 334 333 334 334 335 336 336 336 335 335 336 336 337 338 337 337 338 336 332 330 332 333
334 334 333 333 334 335 335 335 335 336 337 337 337 337 337 337 337 335 335 334 334 334 334 334 334 333 334 333 333 333 333 333 333 332 333 333 332 332 332 332 332 333 333 333 333 334 334 335 335 335 334 334 335 336 336 337 336 336 335 333 331 331 332
331 331 332 332 333 335 335 335 335 337 336 337 337 336 336 336 335 334 333 333 334 334 333 333 333 333 333 332 331 332 331 331 331 331 332 332 332 331 331 331 331 331 331 332 332 332 333 333 334 334 334 334 334 334 335 335 335 335 335 333 331 332 334
330 330 331 331 331 333 334 333 334 335 335 335 336 335 335 335 333 333 333 333 333 332 332 332 331 331 330 329 329 329 329 329 330 330 331 331 330 330 330 330 330 330 331 331 331 332 332 332 332 333 333 333 333 334 334 334 334 334 334 332 331 332 336
330 330 331 331 331 332 332 332 332 333 333 334 334 334 333 333 332 332 332 332 331 330 330 329 328 327 327 326 327 327 327 328 329 329 329 329 329 328 328 329 329 329 330 330 330 331 331 331 331 332 332 332 332 333 333 333 333 333 333 332 331 331 335
330 330 330 330 331 331 331 332 331 330 331 333 332 332 331 331 331 330 330 330 329 328 327 326 325 325 324 324 324 325 325 326 327 327 327 327 327 327 328 328 328 329 329 329 329 329 330 331 331 331 331 331 331 332 332 332 333 333 333 333 331 330 332
329 330 329 330 331 329 329 331 331 329 330 330 330 330 329 329 329 328 328 328 327 326 325 324 323 323 323 323 323 323 324 325 325 325 325 325 326 327 327 328 327 328 328 328 328 329 330 330 330 331 331 331 330 331 331 331 332 332 332 333 332 330 331
328 329 329 329 331 330 328 329 330 329 329 328 328 328 327 327 327 326 326 325 324 324 323 322 322 321 321 322 323 323 323 324 324 324 324 324 325 326 327 327 327 327 328 327 328 329 329 329 329 330 332 331 330 331 330 330 331 330 329 330 331 331 330
328 328 328 328 330 330 328 329 329 329 327 327 325 325 325 325 324 324 324 323 322 322 321 320 320 320 320 321 322 322 323 323 323 323 323 324 324 325 326 326 326 326 326 327 327 328 329 328 327 329 329 329 328 329 328 328 329 329 328 328 328 328 328
329 328 328 328 328 328 328 328 328 327 326 324 323 322 322 322 322 321 321 321 321 320 319 319 320 320 320 321 321 321 322 322 323 323 322 323 324 324 325 325 325 325 326 326 326 326 327 327 326 326 326 326 326 326 326 326 326 326 325 324 323 324 325
329 328 328 328 328 327 327 326 327 326 324 322 321 320 321 320 320 320 319 319 319 319 319 319 319 319 319 320 320 321 322 322 322 322 322 322 322 323 324 324 324 324 325 324 323 324 324 324 324 323 323 323 323 323 323 323 324 324 322 320 318 319 320
328 327 328 327 327 326 325 325 325 324 322 321 320 320 320 320 319 320 319 318 318 319 319 318 319 319 319 319 319 320 321 321 321 320 321 321 321 322 322 322 323 324 323 322 321 322 323 321 321 320 320 320 320 321 321 321 321 321 319 317 316 316 318
327 327 326 326 326 325 323 322 322 321 321 321 319 319 320 319 319 320 319 318 318 318 318 318 318 318 318 319 319 319 320 320 320 320 320 320 320 320 320 321 322 322 322 320 320 321 321 319 318 318 318 318 318 318 318 318 318 317 316 314 314 315 315
326 326 325 325 324 323 321 320 318 318 319 319 319 319 319 319 319 319 319 318 317 317 318 318 317 318 318 318 318 318 319 319 319 319 319 319 320 319 319 320 320 321 321 319 318 319 318 317 316 315 314 315 315 315 315 316 315 314 312 311 311 311 313
325 325 324 323 322 321 320 319 318 318 319 318 318 318 318 319 319 318 318 318 317 316 317 316 316 317 318 318 318 318 318 318 318 319 319 319 319 319 319 320 319 319 320 317 316 316 315 314 313 312 311 312 312 312 312 313 312 311 309 307 308 309 312
324 323 322 320 319 319 320 320 319 319 318 318 318 318 318 318 317 318 318 317 316 316 316 315 316 317 317 317 317 317 317 317 317 318 318 318 318 318 318 318 318 318 318 316 314 314 313 311 310 309 308 309 310 310 310 309 309 308 306 307 309 311 312
322 320 319 318 317 318 318 319 319 319 318 318 318 318 318 317 317 317 317 316 315 315 315 315 315 316 316 316 316 316 316 316 316 317 317 317 317 317 318 317 316 316 316 314 313 312 311 310 309 307 306 306 307 308 308 307 306 306 306 307 309 311 312
319 318 317 316 317 318 318 318 319 319 318 318 318 317 316 316 316 317 316 315 315 315 315 314 314 315 316 316 315 315 315 314 315 316 316 316 317 317 317 316 316 316 315 313 312 312 311 309 309 308 306 305 305 306 306 305 305 305 305 306 308 310 312
317 316 316 316 316 318 318 318 318 318 317 317 317 317 316 316 317 317 317 315 315 314 314 314 314 314 315 315 314 314 313 314 315 315 315 315 316 316 315 315 315 315 315 314 313 312 311 310 309 308 307 305 304 304 305 305 305 305 305 305 307 309 311
Wind_Speed
8 8 7 7 7 8 9 10 9 9 9 10 10 11 11 12 12 12 12 12 13 13 13 13 13 13 13 12 11 10 9 9 8 9 9 9 10 10 9 9 10 10 10 10 10 10 10 10 10 10 10 11 12 12 12 11 12 13 13 13 14 14 14
7 7 7 7 7 8 10 11 10 9 10 10 11 11 11 11 11 11 12 12 12 12 12 13 12 12 12 11 11 10 10 9 8 8 9 9 10 11 10 10 10 10 10 10 10 11 11 10 10 11 11 11 12 12 11 10 11 12 13 13 13 14 14
7 7 7 7 8 9 10 11 10 10 10 10 10 11 10 10 10 11 11 12 13 13 13 12 12 12 11 10 10 10 10 9 9 9 9 9 10 10 10 11 10 10 10 10 10 11 10 10 11 11 11 12 12 11 11 11 11 12 13 13 13 13 14
7 8 8 9 10 10 10 11 11 11 11 11 11 11 10 10 10 11 11 12 12 12 12 12 11 11 10 10 9 9 9 9 9 9 9 9 10 10 10 10 10 10 11 11 11 11 10 10 11 11 11 11 11 11 10 11 11 12 12 13 13 13 14
8 9 8 9 9 9 10 12 12 11 11 11 11 11 11 10 10 10 11 11 11 12 12 11 11 10 10 10 9 9 9 8 8 8 8 8 9 9 9 10 10 10 10 11 11 11 11 11 11 11 11 11 12 11 10 10 11 12 12 13 13 12 13
7 8 7 8 8 9 11 13 13 12 11 11 11 10 10 9 9 9 9 9 10 10 11 11 11 10 10 10 10 10 10 9 8 8 8 8 9 9 9 10 10 10 10 10 10 11 11 12 12 12 12 12 12 11 10 10 11 11 12 12 12 12 13
7 8 8 8 9 10 12 13 13 12 10 9 9 8 8 8 7 7 7 7 8 9 9 9 10 11 10 10 10 11 11 10 10 9 9 9 10 10 10 9 9 10 10 10 9 10 10 11 12 12 13 13 12 11 11 11 11 11 11 11 12 12 13
8 8 8 8 9 10 11 12 12 11 9 8 7 7 7 6 6 6 6 6 7 8 8 9 9 10 10 10 10 10 11 10 10 10 10 10 10 10 10 10 10 9 10 10 9 9 10 10 11 12 13 13 12 11 11 11 12 12 11 12 12 12 13
8 7 7 8 9 10 10 11 10 10 9 7 6 5 5 5 4 4 5 5 6 6 7 8 8 8 9 9 9 10 10 10 10 11 11 11 10 10 10 10 10 10 10 10 10 10 10 10 10 11 12 13 12 11 10 11 11 12 12 12 12 13 13
8 7 7 7 9 9 9 9 9 8 8 7 6 4 4 3 3 3 4 4 5 6 7 7 8 8 9 9 9 10 10 11 11 11 12 11 11 11 11 10 10 10 10 10 11 11 10 10 10 10 11 12 12 12 11 10 11 12 12 13 13 13 14
7 6 7 7 7 7 7 7 6 6 6 5 5 4 3 2 2 2 3 4 5 6 8 8 8 9 9 10 10 10 11 11 12 12 12 12 11 11 12 11 10 11 11 11 11 11 11 11 10 11 11 11 12 12 12 12 11 11 12 13 13 13 14
6 5 6 6 6 5 5 5 4 4 4 4 4 3 4 3 3 3 3 4 5 6 8 8 8 9 9 11 11 11 11 11 11 12 12 12 12 12 12 12 12 12 12 12 12 12 12 11 11 11 11 11 12 12 12 13 13 12 11 12 13 13 14
6 4 4 5 4 3 3 2 2 2 2 3 3 3 4 4 4 4 4 5 6 7 7 8 9 10 10 11 12 11 11 12 11 12 12 12 13 13 13 13 13 13 13 13 13 13 12 12 12 12 12 12 12 12 12 13 13 13 12 11 11 12 13
5 4 3 3 2 2 1 1 1 2 2 3 3 4 4 4 5 5 4 6 7 8 8 9 10 11 11 12 12 12 12 12 12 12 12 12 13 14 14 14 14 14 14 14 14 14 13 13 13 14 13 12 12 12 12 13 13 13 12 10 10 11 12
3 3 2 2 1 1 2 2 3 3 3 3 4 5 5 5 5 5 6 7 8 9 10 10 11 12 12 13 13 12 13 13 13 12 13 13 14 14 15 16 16 16 16 15 15 14 14 14 14 14 14 14 13 12 12 12 12 11 10 11 11 11 11
3 3 3 3 2 2 2 3 3 4 4 5 5 6 6 6 6 7 8 9 9 10 11 12 12 13 13 13 13 13 13 13 13 13 14 14 14 15 16 16 17 17 17 17 16 15 14 15 15 14 14 14 14 13 13 12 11 10 11 12 12 12 12
6 5 5 5 5 4 4 4 5 6 6 6 6 7 7 7 8 8 9 10 10 11 12 13 13 14 14 13 13 14 14 14 14 14 15 15 15 16 16 16 17 17 18 18 17 16 15 14 15 14 14 14 14 14 14 13 11 11 13 13 12 13 13
6 7 7 7 7 6 6 6 7 7 7 7 7 7 8 8 8 9 10 11 12 13 13 14 14 14 14 14 14 14 14 15 15 15 15 15 16 16 16 16 16 17 18 19 18 17 16 15 15 15 14 14 14 15 15 14 13 13 14 14 14 13 13
7 7 7 7 7 6 5 6 6 6 6 6 7 8 8 9 9 10 11 13 14 14 14 15 15 15 15 15 16 16 16 16 16 16 16 16 16 16 16 16 16 17 18 19 20 19 18 17 16 15 15 15 15 15 16 15 13 13 14 15 15 14 13
6 6 6 7 7 5 5 5 6 6 7 7 8 8 9 9 10 11 12 13 14 14 15 15 16 16 16 17 17 17 17 17 17 17 17 16 16 16 16 16 16 17 17 18 19 19 19 19 18 17 16 15 15 16 16 16 14 15 16 16 16 16 16
6 6 6 6 6 6 6 6 7 7 7 8 8 9 9 10 11 12 13 13 14 14 15 16 16 16 16 17 18 18 19 19 18 18 17 16 16 16 16 17 16 17 17 18 19 19 19 19 19 18 17 16 16 16 16 16 15 16 18 18 19 19 18
6 6 6 6 7 7 7 7 7 8 8 8 9 10 11 11 12 13 14 13 13 14 15 15 15 16 17 18 19 19 20 20 20 19 17 16 17 18 17 17 17 17 17 18 18 19 19 19 19 19 18 17 17 17 17 16 15 16 17 19 19 18 17
6 7 8 8 7 6 6 7 7 8 9 9 10 11 12 13 14 14 14 14 14 15 15 15 16 17 18 19 20 20 20 21 21 20 18 18 18 19 18 18 18 17 17 17 18 19 19 19 19 19 18 18 17 17 18 17 15 15 17 18 17 17 16
7 8 9 9 8 7 7 8 8 8 9 10 11 12 13 14 15 15 14 15 15 15 15 16 17 18 19 19 20 21 21 21 21 21 19 19 19 19 19 19 18 18 17 17 18 19 19 19 20 19 18 18 18 17 17 17 16 15 15 15 16 16 16
8 9 8 9 9 10 9 9 9 9 10 11 13 14 14 15 16 15 15 15 15 15 16 17 17 18 19 20 20 21 21 21 21 20 20 20 20 20 19 18 18 18 18 18 18 18 18 18 19 19 19 18 17 17 17 17 16 14 13 13 14 16 17
9 10 9 10 11 11 10 10 11 12 12 13 14 14 15 15 15 15 15 15 15 15 16 17 18 19 19 20 20 21 20 20 20 20 20 20 20 19 18 18 17 17 18 18 18 17 17 17 17 18 18 18 17 17 17 16 16 15 14 13 12 14 17
9 10 10 11 12 12 11 10 11 12 12 12 13 14 14 14 14 14 14 14 14 15 16 17 18 19 19 20 20 21 20 19 19 19 19 19 18 18 17 16 16 16 15 17 18 17 18 19 17 15 15 16 15 15 16 16 17 17 17 15 14 14 16
9 10 10 10 11 12 12 11 11 12 11 12 13 13 13 13 13 12 13 13 14 15 16 17 19 20 20 20 19 19 19 18 19 19 19 18 18 17 16 15 16 15 15 15 16 16 17 18 16 14 14 15 15 15 16 18 18 18 19 19 17 16 17
9 10 10 10 11 12 12 11 11 12 12 12 12 12 12 12 12 12 13 13 14 15 16 17 18 19 19 19 18 18 18 18 19 20 19 19 18 17 16 15 15 16 15 14 15 15 15 15 15 15 16 17 17 17 17 19 19 19 20 21 21 20 20
9 9 9 10 11 12 12 11 10 11 11 11 11 10 11 11 12 12 13 14 14 15 16 17 18 18 18 18 18 18 18 17 18 19 19 19 18 17 17 16 15 16 15 15 16 16 14 14 15 15 16 16 17 17 17 19 19 19 20 23 26 27 27
8 9 9 9 10 11 11 11 10 10 11 10 10 9 10 11 11 13 14 14 15 15 16 17 18 18 17 17 17 17 17 18 18 18 18 18 18 18 17 16 16 15 15 16 17 15 13 14 15 16 16 16 16 16 17 18 18 18 20 24 27 29 30
8 9 9 9 10 10 11 11 10 10 10 9 9 9 9 10 11 12 14 14 14 14 15 17 17 17 17 16 16 17 17 18 18 17 17 17 17 17 17 16 16 15 14 16 17 15 14 15 16 16 17 16 16 16 17 17 18 19 21 25 26 28 31
9 9 9 10 10 10 10 10 10 11 10 9 9 10 11 11 12 13 14 14 14 14 15 16 17 17 16 16 16 16 16 17 17 17 17 17 17 17 18 17 16 16 14 15 16 16 15 15 16 17 18 17 16 16 17 17 18 19 23 27 27 28 31
9 9 9 9 9 9 9 9 10 11 11 10 10 11 12 13 13 13 13 13 13 14 15 16 17 17 16 15 15 15 15 16 16 16 17 17 17 17 18 17 17 16 15 16 17 15 14 14 14 16 18 17 16 17 17 17 17 20 24 28 29 30 30
9 9 8 8 8 8 8 9 10 11 10 10 10 11 13 14 13 12 12 12 13 14 15 16 17 16 15 15 14 14 15 15 15 16 16 16 16 17 16 16 16 15 14 16 17 14 12 13 14 16 17 16 15 16 16 17 18 21 25 26 27 26 25
8 7 7 7 8 9 9 9 9 10 10 10 10 12 14 13 12 11 11 12 13 14 15 16 17 16 15 14 13 14 15 15 15 15 16 15 16 17 16 15 15 13 12 14 15 13 12 14 16 17 18 17 15 15 16 17 20 23 25 25 24 22 19
7 7 7 7 9 9 9 9 9 10 10 10 11 13 13 12 11 11 12 13 14 14 15 16 17 16 15 14 14 14 15 15 15 15 15 15 16 17 17 16 16 14 12 14 14 11 11 14 17 18 20 21 19 18 18 19 21 23 24 25 23 20 17
5 6 7 8 10 10 10 10 9 10 10 11 12 13 13 11 11 11 12 13 14 14 15 16 16 16 16 15 15 15 14 14 14 14 15 15 15 16 16 16 16 16 14 14 14 11 11 14 16 18 19 21 23 22 20 21 23 25 26 26 24 20 17
Wind_Direction
124 115 103 94 94 92 89 86 84 85 80 70 65 61 59 59 58 57 55 51 51 51 48 46 45 45 44 43 39 35 29 21 10 358 348 343 342 337 330 324 316 310 308 308 311 312 309 304 298 290 280 274 271 268 263 258 256 257 257 254 252 253 252
127 117 108 105 102 97 94 94 93 89 86 80 73 67 64 60 58 59 57 55 53 50 48 47 45 45 44 43 42 39 36 29 19 9 360 354 352 347 342 337 328 321 317 315 315 312 309 306 300 294 287 279 276 272 267 261 259 260 262 260 256 254 254
131 119 114 112 105 103 101 98 95 88 85 82 77 73 69 63 60 59 57 58 56 52 48 45 43 41 38 37 36 35 32 26 20 14 7 1 356 351 348 344 339 333 326 320 317 313 308 304 300 296 288 282 281 278 271 263 259 260 262 262 260 257 256
129 121 117 114 109 109 107 101 96 91 86 83 83 80 76 70 68 66 63 62 59 55 49 44 40 36 31 29 26 24 23 20 17 11 5 1 354 351 349 346 343 338 334 331 326 319 311 304 301 297 289 282 283 280 276 269 261 261 262 260 257 254 255
130 122 120 117 115 114 109 104 97 93 91 90 90 88 83 79 76 73 68 64 60 55 50 44 38 34 28 24 19 13 9 6 6 2 358 355 350 348 346 343 342 336 334 335 330 325 321 314 306 299 292 286 284 284 282 275 266 262 263 262 259 255 254
134 127 122 116 116 113 108 106 100 96 95 94 94 91 88 83 76 73 69 65 62 55 49 42 35 29 23 19 14 8 3 357 354 350 347 347 345 344 343 340 339 334 331 329 325 325 325 321 316 309 302 295 291 292 290 284 276 269 266 266 264 262 259
137 127 123 118 118 115 110 109 105 103 101 99 98 94 90 84 75 70 62 59 58 49 43 37 30 23 14 10 6 2 359 354 348 343 337 336 336 337 338 336 335 331 328 323 319 319 318 318 320 318 314 308 301 299 295 290 286 280 274 271 268 266 265
133 125 126 122 118 114 111 110 109 109 109 106 103 97 91 83 72 64 52 46 47 42 35 27 22 16 5 359 355 352 350 345 341 337 332 328 328 331 333 333 332 329 325 322 318 316 313 314 317 317 318 316 311 306 298 292 288 283 279 275 272 269 267
126 121 119 115 111 108 108 108 107 109 109 106 103 99 93 81 65 54 41 32 32 33 28 18 11 4 353 347 345 344 341 337 333 330 328 327 326 331 333 331 330 328 324 321 318 315 313 311 311 311 313 314 314 312 304 295 289 284 280 277 275 272 269
123 120 114 106 105 108 111 111 111 109 107 104 101 96 86 78 62 43 25 16 19 20 14 8 0 352 347 339 335 336 334 332 330 326 326 327 326 330 333 332 329 327 325 322 319 317 313 309 307 305 306 308 311 312 310 303 293 286 282 277 274 273 272
120 119 118 108 104 110 112 111 112 108 104 99 92 83 71 58 37 29 19 14 19 12 2 359 353 348 344 338 333 332 329 328 328 327 327 327 326 329 330 329 329 327 325 323 321 318 314 311 308 305 303 304 306 309 310 308 300 292 287 283 279 276 274
110 109 110 105 105 107 101 100 103 103 100 83 66 53 44 34 24 30 33 27 19 7 359 356 351 345 341 338 336 332 328 326 325 324 326 326 327 328 328 327 327 325 323 321 319 317 315 313 311 306 303 302 302 303 305 306 304 297 290 286 282 277 273
101 99 102 104 109 101 87 84 76 76 85 72 51 37 35 40 46 48 41 24 10 4 2 356 349 344 339 337 336 332 331 330 326 325 326 326 327 326 326 325 325 324 323 320 317 315 314 312 311 308 305 302 301 300 300 301 302 299 293 289 285 281 277
101 99 100 95 91 78 47 334 342 7 44 62 62 64 65 66 59 44 24 15 10 6 2 352 345 343 338 335 335 334 334 333 330 329 328 327 326 325 325 324 323 321 319 319 317 314 312 310 309 308 305 302 300 299 299 297 296 298 298 299 297 292 288
110 105 104 80 48 8 320 317 334 356 32 60 72 76 72 59 43 24 11 12 8 1 356 346 341 339 336 334 334 333 334 331 330 330 329 328 327 325 324 323 322 320 318 317 317 314 311 307 305 306 304 302 299 298 298 296 294 296 303 310 310 302 294
37 46 55 43 22 15 5 8 24 34 50 63 63 59 50 33 21 10 4 4 357 350 345 339 336 335 334 334 332 331 332 330 329 330 329 329 326 324 323 322 321 320 317 316 315 313 311 307 304 305 303 301 300 299 298 296 294 295 299 306 308 304 299
35 40 53 56 52 52 50 53 59 61 61 55 45 37 28 16 6 358 356 352 346 340 336 333 335 334 333 334 333 332 331 329 328 328 327 327 325 323 322 322 321 319 317 316 314 313 311 307 305 306 305 302 300 299 298 297 296 296 299 305 308 304 301
59 61 66 70 67 59 56 62 64 63 56 44 31 22 14 5 357 354 351 345 339 336 334 335 336 333 332 334 334 333 330 327 326 325 324 323 322 322 321 320 320 319 317 316 315 313 311 309 309 308 307 304 300 298 298 297 298 299 301 308 311 307 300
64 61 56 51 48 46 51 55 50 47 41 29 18 11 7 4 358 351 345 340 338 336 336 337 335 332 332 333 334 333 330 327 326 323 322 322 320 320 319 317 317 317 317 315 314 313 311 310 311 311 309 306 303 301 300 299 301 299 298 305 311 310 303
41 37 29 17 14 19 33 34 25 27 26 18 14 10 6 4 355 346 341 339 338 338 338 337 333 333 333 333 333 332 329 328 326 323 323 322 320 318 316 314 314 314 314 313 311 311 311 311 312 313 311 308 305 304 302 302 305 302 300 306 312 312 305
28 21 14 11 14 18 22 21 19 21 18 14 13 8 3 0 352 345 342 341 340 340 339 336 334 334 335 334 333 332 330 328 325 322 323 321 318 316 314 313 313 311 312 311 309 308 309 310 310 311 311 310 307 306 303 303 306 306 305 307 310 311 306
29 22 15 18 27 30 22 16 19 19 13 12 12 8 3 359 351 345 342 342 343 341 339 337 337 338 338 335 333 331 329 326 322 321 321 317 315 316 315 314 312 310 310 309 307 307 306 306 307 307 308 309 308 305 304 305 308 308 306 308 310 311 307
27 20 17 15 22 34 26 15 17 15 7 8 15 13 5 356 349 344 342 344 345 343 342 343 343 341 339 334 330 329 326 322 320 319 318 317 317 318 317 315 312 309 309 308 307 306 305 304 304 304 305 307 307 306 306 307 310 310 308 312 317 317 309
19 16 19 15 14 18 17 11 8 7 7 10 14 12 2 352 348 346 346 348 348 346 347 347 344 341 337 332 329 327 324 322 321 321 323 323 322 320 316 314 311 309 310 309 306 304 304 304 304 304 306 307 308 308 308 306 308 311 311 314 321 319 311
9 8 11 14 9 3 6 9 2 358 7 12 9 5 0 354 350 350 351 350 348 347 348 346 343 339 335 331 329 327 325 325 325 327 328 326 323 321 317 315 312 310 313 313 308 305 306 306 307 308 309 310 311 311 310 308 311 316 316 316 322 322 317
9 4 3 8 8 359 357 5 2 357 6 11 6 2 0 356 352 352 352 349 348 349 348 345 340 337 333 330 328 328 328 327 327 329 328 324 322 321 320 318 316 315 317 317 313 310 310 310 311 313 316 320 322 320 317 317 322 327 325 320 322 326 323
5 3 2 7 10 2 353 359 4 1 4 10 6 1 359 354 351 351 350 349 351 350 346 342 338 336 334 331 330 332 332 329 329 329 327 326 326 323 323 324 321 319 320 318 315 316 317 315 315 318 323 328 332 331 330 334 339 341 340 338 337 335 328
357 358 359 1 8 5 355 355 4 2 2 8 5 360 358 354 350 351 349 349 350 347 341 340 339 337 336 334 333 334 333 331 331 331 331 334 333 329 329 329 327 325 323 318 316 319 324 326 327 330 332 334 338 340 342 346 348 351 354 352 350 349 341
360 358 357 356 3 5 358 357 5 4 1 3 2 359 359 356 353 351 348 347 346 342 339 339 339 337 336 337 337 335 333 333 333 332 335 338 337 333 331 330 331 329 324 323 328 330 332 337 341 342 341 340 341 342 344 345 346 350 354 349 344 345 343
8 2 360 2 7 5 358 358 3 0 356 358 360 1 1 357 352 348 346 344 340 336 337 337 337 336 336 337 339 337 335 335 334 335 339 340 339 337 334 333 337 334 332 342 352 350 347 347 348 348 345 343 342 341 342 342 341 345 349 346 343 343 342
12 5 3 8 11 4 356 355 355 352 351 352 355 357 357 354 348 342 342 341 335 333 335 335 334 334 333 334 336 336 335 336 337 340 343 342 342 341 339 339 342 340 346 1 4 359 356 355 351 347 344 342 343 341 339 340 340 342 345 346 344 343 340
12 9 6 8 9 3 354 351 352 352 351 350 351 351 349 347 343 337 336 337 334 333 335 334 332 332 331 332 334 334 334 337 338 340 343 343 343 343 343 345 346 345 358 13 8 359 359 357 350 345 342 340 340 340 338 338 341 344 345 345 343 340 337
12 11 10 9 7 2 355 354 357 356 352 349 349 347 342 340 339 335 333 334 335 336 337 335 333 332 331 332 334 335 337 338 338 338 342 344 345 345 346 349 349 351 5 19 13 3 1 360 354 349 345 340 339 340 340 340 343 345 345 344 341 338 338
13 10 11 10 6 2 358 356 357 355 352 349 346 343 341 338 336 335 335 337 339 339 338 337 335 333 332 332 334 338 340 339 338 338 341 343 345 346 347 349 350 352 4 18 17 10 6 7 4 356 347 342 341 343 343 344 346 347 345 343 340 339 343
8 6 10 8 7 6 360 353 352 352 352 350 344 342 341 338 337 339 340 341 343 341 340 339 335 333 332 333 335 339 341 341 341 341 341 342 342 343 345 349 351 353 1 11 12 11 13 19 15 5 355 348 345 348 350 347 346 346 344 342 339 341 348
6 10 13 8 9 9 2 355 353 351 350 349 345 344 343 340 340 346 348 347 347 344 342 341 337 335 335 335 337 341 342 341 343 343 341 341 340 339 340 344 350 356 1 3 2 3 12 20 17 10 6 3 357 354 354 352 348 346 346 346 342 344 352
18 15 9 7 11 9 0 356 354 351 350 350 347 346 345 344 346 352 352 350 349 346 344 342 340 339 338 337 339 341 340 340 343 344 344 343 341 341 340 339 343 350 356 359 359 357 5 14 11 6 7 9 7 1 357 356 354 352 352 353 351 353 359
31 14 3 5 9 7 360 356 354 351 350 350 349 349 347 346 348 352 350 348 348 346 343 343 342 341 340 339 341 340 338 340 343 345 347 346 343 344 344 341 341 345 350 357 359 356 359 7 6 1 2 7 8 6 1 358 357 356 357 359 1 3 7